QPF
0.00 0.00 0.00 0.00 0.00 0.00 0.00 0.00 0.00 0.00 0.00 0.00 0.00 0.00 0.00 0.00 0.00 0.00 0.00 0.00 0.00 0.00 0.03 0.02 0.00 0.00 0.00 0.01 0.03 0.07 0.15 0.19 0.21 0.20 0.16 0.14 0.11 0.12 0.12 0.10 0.08 0.10 0.11 0.13
0.00 0.00 0.00 0.00 0.00 0.00 0.00 0.00 0.00 0.00 0.00 0.00 0.00 0.00 0.00 0.00 0.00 0.00 0.00 0.00 0.00 0.00 0.02 0.01 0.02 0.01 0.00 0.01 0.04 0.11 0.16 0.19 0.21 0.23 0.24 0.24 0.27 0.21 0.18 0.17 0.14 0.13 0.15 0.15
0.00 0.00 0.00 0.00 0.00 0.00 0.00 0.00 0.00 0.00 0.00 0.00 0.00 0.00 0.00 0.00 0.00 0.00 0.00 0.00 0.00 0.00 0.01 0.01 0.01 0.01 0.01 0.02 0.04 0.06 0.11 0.15 0.19 0.24 0.27 0.26 0.26 0.17 0.18 0.21 0.19 0.15 0.16 0.16
0.00 0.00 0.00 0.00 0.00 0.00 0.00 0.00 0.00 0.00 0.00 0.00 0.00 0.00 0.00 0.00 0.00 0.00 0.00 0.01 0.00 0.00 0.00 0.00 0.00 0.01 0.01 0.02 0.02 0.03 0.05 0.08 0.11 0.15 0.19 0.19 0.19 0.17 0.21 0.27 0.27 0.25 0.22 0.21
0.00 0.00 0.00 0.00 0.00 0.00 0.00 0.00 0.00 0.00 0.00 0.00 0.00 0.00 0.00 0.00 0.00 0.01 0.02 0.02 0.02 0.01 0.00 0.00 0.00 0.00 0.00 0.00 0.01 0.01 0.02 0.03 0.05 0.07 0.11 0.14 0.16 0.18 0.23 0.25 0.22 0.23 0.22 0.20
0.00 0.00 0.00 0.00 0.00 0.00 0.00 0.00 0.00 0.00 0.00 0.00 0.00 0.00 0.00 0.00 0.00 0.01 0.01 0.02 0.02 0.01 0.00 0.00 0.00 0.00 0.00 0.00 0.00 0.00 0.01 0.02 0.03 0.05 0.06 0.09 0.10 0.12 0.15 0.16 0.18 0.22 0.25 0.21
0.00 0.00 0.00 0.00 0.00 0.00 0.00 0.00 0.00 0.00 0.01 0.01 0.01 0.01 0.01 0.01 0.00 0.00 0.00 0.00 0.00 0.00 0.00 0.00 0.00 0.00 0.00 0.00 0.00 0.00 0.00 0.01 0.02 0.02 0.04 0.06 0.08 0.10 0.12 0.14 0.17 0.19 0.19 0.18
0.00 0.00 0.00 0.00 0.00 0.00 0.00 0.00 0.01 0.01 0.00 0.00 0.00 0.00 0.00 0.00 0.00 0.00 0.00 0.00 0.00 0.00 0.00 0.00 0.00 0.00 0.00 0.00 0.00 0.00 0.00 0.01 0.01 0.02 0.03 0.04 0.06 0.07 0.09 0.13 0.16 0.17 0.18 0.18
0.00 0.00 0.00 0.00 0.00 0.00 0.00 0.00 0.00 0.00 0.00 0.00 0.00 0.00 0.00 0.00 0.00 0.00 0.00 0.00 0.00 0.00 0.00 0.00 0.00 0.00 0.00 0.00 0.00 0.00 0.00 0.01 0.01 0.02 0.03 0.04 0.05 0.06 0.07 0.11 0.16 0.17 0.18 0.18
0.00 0.00 0.00 0.00 0.00 0.00 0.00 0.00 0.00 0.00 0.00 0.00 0.00 0.00 0.00 0.00 0.00 0.00 0.00 0.00 0.00 0.00 0.00 0.00 0.00 0.00 0.00 0.00 0.00 0.00 0.00 0.01 0.01 0.02 0.03 0.03 0.05 0.06 0.08 0.12 0.15 0.16 0.17 0.16
0.00 0.00 0.00 0.00 0.00 0.00 0.00 0.00 0.00 0.00 0.00 0.00 0.00 0.00 0.00 0.00 0.00 0.00 0.00 0.00 0.00 0.00 0.00 0.00 0.00 0.00 0.00 0.00 0.00 0.00 0.00 0.01 0.02 0.02 0.04 0.05 0.06 0.06 0.08 0.11 0.12 0.14 0.16 0.18
0.00 0.00 0.00 0.00 0.00 0.00 0.00 0.00 0.00 0.00 0.00 0.00 0.00 0.00 0.00 0.00 0.00 0.00 0.00 0.00 0.00 0.00 0.00 0.00 0.00 0.00 0.00 0.00 0.00 0.00 0.01 0.01 0.02 0.03 0.05 0.07 0.08 0.10 0.10 0.11 0.13 0.13 0.14 0.15
0.00 0.00 0.00 0.00 0.00 0.00 0.00 0.00 0.00 0.00 0.00 0.00 0.00 0.00 0.00 0.00 0.00 0.00 0.00 0.00 0.00 0.00 0.00 0.00 0.00 0.00 0.00 0.00 0.00 0.00 0.01 0.01 0.04 0.05 0.08 0.09 0.09 0.12 0.15 0.17 0.15 0.14 0.13 0.13
0.00 0.00 0.00 0.00 0.00 0.00 0.00 0.00 0.00 0.00 0.00 0.00 0.00 0.00 0.00 0.00 0.00 0.00 0.00 0.00 0.00 0.00 0.00 0.00 0.00 0.00 0.00 0.00 0.00 0.00 0.01 0.01 0.06 0.08 0.12 0.13 0.14 0.14 0.13 0.13 0.14 0.14 0.12 0.12
0.00 0.00 0.00 0.00 0.00 0.00 0.00 0.00 0.00 0.00 0.00 0.00 0.00 0.00 0.00 0.00 0.00 0.00 0.00 0.00 0.00 0.00 0.00 0.00 0.00 0.00 0.00 0.00 0.00 0.01 0.01 0.02 0.05 0.06 0.09 0.11 0.10 0.10 0.11 0.11 0.10 0.08 0.08 0.10
0.00 0.00 0.00 0.00 0.00 0.00 0.00 0.00 0.00 0.00 0.00 0.00 0.00 0.00 0.00 0.00 0.00 0.00 0.00 0.00 0.00 0.00 0.00 0.00 0.00 0.00 0.00 0.00 0.00 0.01 0.01 0.03 0.04 0.06 0.08 0.09 0.08 0.06 0.06 0.06 0.04 0.04 0.05 0.07
0.00 0.00 0.00 0.00 0.00 0.00 0.00 0.00 0.00 0.00 0.00 0.00 0.00 0.00 0.00 0.00 0.00 0.00 0.00 0.00 0.00 0.00 0.00 0.00 0.00 0.00 0.00 0.00 0.00 0.00 0.01 0.02 0.04 0.06 0.09 0.10 0.10 0.08 0.05 0.03 0.02 0.03 0.04 0.06
0.00 0.00 0.00 0.00 0.00 0.00 0.00 0.00 0.00 0.00 0.00 0.00 0.00 0.00 0.00 0.00 0.00 0.00 0.00 0.00 0.00 0.00 0.00 0.00 0.00 0.00 0.00 0.00 0.00 0.00 0.00 0.01 0.02 0.06 0.10 0.11 0.12 0.11 0.06 0.03 0.04 0.03 0.04 0.05
0.00 0.00 0.00 0.00 0.00 0.00 0.00 0.00 0.00 0.00 0.00 0.00 0.00 0.00 0.00 0.00 0.00 0.00 0.00 0.00 0.00 0.00 0.00 0.00 0.00 0.00 0.00 0.00 0.00 0.00 0.00 0.01 0.02 0.05 0.11 0.14 0.14 0.12 0.07 0.05 0.05 0.05 0.05 0.05
0.00 0.00 0.00 0.00 0.00 0.01 0.00 0.00 0.00 0.00 0.00 0.00 0.00 0.00 0.00 0.00 0.01 0.00 0.00 0.00 0.00 0.00 0.00 0.00 0.00 0.00 0.00 0.00 0.00 0.00 0.00 0.01 0.02 0.06 0.12 0.16 0.17 0.14 0.12 0.09 0.08 0.06 0.06 0.06
0.00 0.00 0.00 0.00 0.00 0.00 0.00 0.00 0.00 0.01 0.02 0.00 0.00 0.00 0.00 0.02 0.02 0.01 0.00 0.00 0.00 0.00 0.00 0.00 0.00 0.00 0.00 0.00 0.00 0.01 0.00 0.01 0.01 0.04 0.11 0.17 0.19 0.17 0.15 0.14 0.10 0.07 0.05 0.05
0.00 0.00 0.00 0.00 0.01 0.01 0.00 0.00 0.01 0.02 0.01 0.01 0.01 0.01 0.01 0.01 0.01 0.01 0.01 0.01 0.00 0.01 0.01 0.00 0.00 0.00 0.01 0.01 0.01 0.01 0.01 0.00 0.01 0.03 0.09 0.15 0.17 0.15 0.15 0.13 0.10 0.09 0.07 0.04
0.00 0.00 0.00 0.00 0.01 0.01 0.00 0.00 0.01 0.01 0.01 0.01 0.01 0.01 0.02 0.02 0.02 0.02 0.02 0.02 0.01 0.02 0.02 0.01 0.02 0.02 0.02 0.03 0.03 0.03 0.02 0.01 0.01 0.03 0.09 0.15 0.17 0.19 0.19 0.12 0.09 0.09 0.06 0.04
0.00 0.00 0.00 0.01 0.01 0.00 0.00 0.01 0.01 0.01 0.01 0.01 0.01 0.01 0.02 0.03 0.03 0.03 0.03 0.03 0.03 0.04 0.03 0.04 0.05 0.07 0.09 0.09 0.08 0.06 0.03 0.01 0.01 0.03 0.08 0.13 0.15 0.17 0.17 0.15 0.12 0.09 0.06 0.05
0.00 0.00 0.01 0.02 0.01 0.01 0.01 0.01 0.00 0.00 0.01 0.01 0.01 0.01 0.02 0.03 0.04 0.04 0.04 0.04 0.05 0.05 0.05 0.08 0.12 0.16 0.18 0.18 0.15 0.09 0.04 0.02 0.02 0.03 0.06 0.09 0.12 0.14 0.16 0.14 0.14 0.14 0.11 0.06
0.00 0.01 0.01 0.01 0.01 0.02 0.02 0.01 0.01 0.01 0.01 0.01 0.01 0.02 0.02 0.03 0.04 0.04 0.04 0.04 0.04 0.05 0.06 0.08 0.11 0.14 0.18 0.23 0.22 0.16 0.09 0.04 0.03 0.03 0.06 0.08 0.09 0.11 0.12 0.12 0.08 0.04 0.05 0.02
MSLP
1009.44 1009.69 1009.78 1009.74 1009.61 1009.46 1009.31 1009.18 1009.08 1008.96 1008.80 1008.56 1008.24 1007.84 1007.41 1007.00 1006.67 1006.46 1006.39 1006.45 1006.60 1006.80 1006.99 1007.13 1007.20 1007.22 1007.22 1007.22 1007.29 1007.43 1007.67 1007.97 1008.31 1008.62 1008.87 1009.02 1009.08 1009.05 1008.97 1008.90 1008.87 1008.93 1009.09 1009.35
1009.78 1009.95 1009.98 1009.90 1009.78 1009.67 1009.60 1009.57 1009.56 1009.51 1009.40 1009.17 1008.84 1008.41 1007.94 1007.50 1007.16 1006.98 1006.96 1007.09 1007.33 1007.61 1007.86 1008.02 1008.08 1008.04 1007.94 1007.83 1007.78 1007.81 1007.95 1008.19 1008.48 1008.77 1009.00 1009.15 1009.19 1009.12 1009.00 1008.87 1008.79 1008.80 1008.91 1009.14
1010.07 1010.14 1010.10 1010.01 1009.93 1009.89 1009.93 1010.02 1010.12 1010.16 1010.09 1009.88 1009.51 1009.02 1008.49 1008.00 1007.62 1007.43 1007.44 1007.63 1007.95 1008.30 1008.61 1008.82 1008.87 1008.80 1008.63 1008.42 1008.26 1008.18 1008.23 1008.39 1008.62 1008.87 1009.08 1009.20 1009.21 1009.11 1008.95 1008.77 1008.64 1008.60 1008.67 1008.87
1010.26 1010.24 1010.15 1010.07 1010.04 1010.12 1010.29 1010.52 1010.75 1010.89 1010.87 1010.65 1010.24 1009.69 1009.06 1008.47 1008.03 1007.78 1007.78 1007.98 1008.33 1008.74 1009.11 1009.34 1009.42 1009.33 1009.12 1008.85 1008.60 1008.44 1008.40 1008.48 1008.65 1008.85 1009.03 1009.12 1009.11 1008.99 1008.79 1008.58 1008.41 1008.32 1008.36 1008.53
1010.36 1010.25 1010.14 1010.08 1010.14 1010.33 1010.65 1011.04 1011.41 1011.64 1011.68 1011.47 1011.02 1010.37 1009.63 1008.93 1008.36 1008.03 1007.95 1008.11 1008.45 1008.87 1009.26 1009.53 1009.63 1009.55 1009.32 1009.03 1008.73 1008.51 1008.41 1008.43 1008.55 1008.72 1008.86 1008.93 1008.90 1008.77 1008.55 1008.32 1008.12 1008.00 1008.01 1008.15
1010.38 1010.21 1010.08 1010.07 1010.21 1010.54 1011.01 1011.55 1012.04 1012.38 1012.47 1012.27 1011.77 1011.04 1010.19 1009.35 1008.64 1008.17 1007.97 1008.05 1008.33 1008.72 1009.10 1009.38 1009.50 1009.44 1009.24 1008.95 1008.65 1008.41 1008.28 1008.27 1008.36 1008.49 1008.62 1008.68 1008.64 1008.50 1008.28 1008.04 1007.83 1007.70 1007.68 1007.78
1010.35 1010.15 1010.03 1010.06 1010.29 1010.73 1011.32 1011.99 1012.59 1013.02 1013.17 1012.97 1012.45 1011.65 1010.69 1009.72 1008.87 1008.24 1007.90 1007.85 1008.03 1008.35 1008.69 1008.97 1009.11 1009.09 1008.93 1008.68 1008.41 1008.19 1008.07 1008.06 1008.13 1008.25 1008.36 1008.42 1008.39 1008.26 1008.05 1007.82 1007.60 1007.46 1007.42 1007.49
1010.33 1010.12 1010.03 1010.10 1010.40 1010.91 1011.59 1012.33 1013.00 1013.49 1013.67 1013.49 1012.96 1012.12 1011.09 1010.02 1009.04 1008.28 1007.79 1007.59 1007.65 1007.87 1008.16 1008.42 1008.58 1008.61 1008.51 1008.33 1008.13 1007.96 1007.87 1007.87 1007.95 1008.07 1008.18 1008.24 1008.22 1008.11 1007.92 1007.70 1007.50 1007.35 1007.29 1007.33
1010.37 1010.19 1010.12 1010.23 1010.55 1011.08 1011.77 1012.52 1013.21 1013.71 1013.91 1013.75 1013.22 1012.38 1011.33 1010.20 1009.14 1008.27 1007.66 1007.34 1007.27 1007.39 1007.62 1007.86 1008.03 1008.11 1008.09 1008.00 1007.88 1007.79 1007.75 1007.79 1007.89 1008.01 1008.13 1008.19 1008.18 1008.09 1007.93 1007.73 1007.54 1007.39 1007.32 1007.32
1010.53 1010.39 1010.35 1010.46 1010.76 1011.24 1011.87 1012.55 1013.18 1013.64 1013.82 1013.67 1013.17 1012.36 1011.33 1010.21 1009.14 1008.21 1007.53 1007.11 1006.94 1006.98 1007.15 1007.37 1007.56 1007.70 1007.76 1007.77 1007.75 1007.74 1007.76 1007.84 1007.96 1008.09 1008.21 1008.28 1008.28 1008.20 1008.06 1007.89 1007.72 1007.58 1007.50 1007.48
1010.81 1010.73 1010.71 1010.78 1011.00 1011.37 1011.86 1012.40 1012.90 1013.26 1013.39 1013.23 1012.76 1012.02 1011.07 1010.01 1008.98 1008.07 1007.37 1006.90 1006.68 1006.66 1006.79 1006.99 1007.21 1007.40 1007.54 1007.64 1007.72 1007.80 1007.89 1008.01 1008.14 1008.28 1008.40 1008.47 1008.47 1008.41 1008.30 1008.15 1008.01 1007.88 1007.80 1007.77
1011.18 1011.16 1011.13 1011.15 1011.25 1011.44 1011.73 1012.07 1012.39 1012.61 1012.66 1012.48 1012.05 1011.39 1010.55 1009.61 1008.68 1007.84 1007.17 1006.70 1006.45 1006.40 1006.50 1006.70 1006.94 1007.18 1007.40 1007.59 1007.75 1007.90 1008.05 1008.21 1008.36 1008.50 1008.62 1008.68 1008.69 1008.65 1008.56 1008.45 1008.34 1008.24 1008.18 1008.15
1011.57 1011.59 1011.55 1011.48 1011.44 1011.44 1011.50 1011.61 1011.72 1011.78 1011.73 1011.52 1011.13 1010.56 1009.85 1009.06 1008.26 1007.53 1006.93 1006.49 1006.25 1006.18 1006.26 1006.45 1006.70 1006.98 1007.26 1007.51 1007.75 1007.97 1008.17 1008.36 1008.52 1008.67 1008.78 1008.85 1008.87 1008.85 1008.79 1008.73 1008.66 1008.60 1008.57 1008.56
1011.88 1011.93 1011.86 1011.71 1011.53 1011.34 1011.19 1011.07 1010.98 1010.89 1010.74 1010.51 1010.16 1009.69 1009.12 1008.48 1007.82 1007.21 1006.69 1006.30 1006.06 1005.98 1006.04 1006.21 1006.45 1006.74 1007.05 1007.35 1007.64 1007.90 1008.14 1008.36 1008.54 1008.70 1008.81 1008.89 1008.93 1008.95 1008.94 1008.92 1008.91 1008.90 1008.92 1008.95
1012.03 1012.09 1012.00 1011.79 1011.49 1011.17 1010.85 1010.56 1010.32 1010.10 1009.89 1009.64 1009.34 1008.97 1008.53 1008.02 1007.50 1006.99 1006.54 1006.18 1005.93 1005.82 1005.83 1005.96 1006.16 1006.43 1006.73 1007.05 1007.36 1007.65 1007.92 1008.16 1008.36 1008.54 1008.67 1008.78 1008.86 1008.92 1008.96 1009.01 1009.06 1009.12 1009.19 1009.26
1011.96 1012.03 1011.93 1011.70 1011.36 1010.97 1010.57 1010.20 1009.87 1009.60 1009.36 1009.13 1008.88 1008.60 1008.25 1007.86 1007.43 1006.99 1006.57 1006.21 1005.93 1005.75 1005.68 1005.71 1005.84 1006.05 1006.31 1006.60 1006.90 1007.20 1007.48 1007.74 1007.97 1008.18 1008.35 1008.50 1008.63 1008.75 1008.87 1008.98 1009.10 1009.23 1009.36 1009.49
1011.68 1011.76 1011.70 1011.50 1011.19 1010.83 1010.45 1010.09 1009.78 1009.53 1009.31 1009.13 1008.94 1008.72 1008.45 1008.12 1007.74 1007.32 1006.89 1006.47 1006.11 1005.82 1005.62 1005.53 1005.54 1005.63 1005.81 1006.03 1006.30 1006.58 1006.86 1007.14 1007.40 1007.64 1007.86 1008.07 1008.27 1008.46 1008.65 1008.85 1009.04 1009.23 1009.42 1009.60
1011.29 1011.40 1011.41 1011.31 1011.12 1010.88 1010.62 1010.37 1010.15 1009.98 1009.84 1009.71 1009.58 1009.41 1009.18 1008.87 1008.48 1008.02 1007.52 1007.01 1006.52 1006.08 1005.72 1005.46 1005.30 1005.25 1005.30 1005.43 1005.62 1005.85 1006.12 1006.40 1006.68 1006.97 1007.25 1007.52 1007.80 1008.07 1008.35 1008.62 1008.89 1009.14 1009.39 1009.62
1010.91 1011.09 1011.22 1011.27 1011.27 1011.22 1011.15 1011.07 1011.00 1010.94 1010.90 1010.84 1010.75 1010.60 1010.36 1010.02 1009.58 1009.04 1008.44 1007.79 1007.14 1006.52 1005.97 1005.52 1005.18 1004.96 1004.85 1004.85 1004.94 1005.10 1005.33 1005.60 1005.90 1006.22 1006.55 1006.90 1007.25 1007.61 1007.97 1008.32 1008.65 1008.97 1009.27 1009.55
1010.73 1011.00 1011.27 1011.52 1011.73 1011.90 1012.04 1012.15 1012.24 1012.31 1012.34 1012.33 1012.25 1012.08 1011.80 1011.40 1010.87 1010.23 1009.49 1008.70 1007.89 1007.09 1006.35 1005.71 1005.17 1004.77 1004.49 1004.35 1004.32 1004.39 1004.56 1004.80 1005.10 1005.45 1005.83 1006.23 1006.66 1007.09 1007.53 1007.95 1008.35 1008.73 1009.09 1009.41
1010.87 1011.26 1011.69 1012.12 1012.53 1012.90 1013.23 1013.50 1013.71 1013.86 1013.94 1013.93 1013.82 1013.59 1013.24 1012.74 1012.11 1011.36 1010.51 1009.58 1008.63 1007.68 1006.78 1005.96 1005.26 1004.68 1004.25 1003.96 1003.80 1003.77 1003.87 1004.06 1004.34 1004.69 1005.10 1005.55 1006.03 1006.53 1007.04 1007.53 1008.00 1008.44 1008.85 1009.22
1011.40 1011.91 1012.48 1013.06 1013.61 1014.13 1014.57 1014.92 1015.18 1015.34 1015.39 1015.33 1015.14 1014.83 1014.38 1013.78 1013.06 1012.21 1011.27 1010.26 1009.21 1008.16 1007.15 1006.21 1005.38 1004.67 1004.10 1003.68 1003.40 1003.27 1003.28 1003.41 1003.65 1003.98 1004.39 1004.87 1005.39 1005.94 1006.50 1007.06 1007.59 1008.10 1008.57 1009.00
1012.31 1012.92 1013.57 1014.23 1014.85 1015.40 1015.85 1016.19 1016.40 1016.48 1016.43 1016.26 1015.95 1015.52 1014.97 1014.29 1013.49 1012.60 1011.62 1010.58 1009.50 1008.42 1007.37 1006.38 1005.48 1004.68 1004.02 1003.49 1003.12 1002.89 1002.81 1002.86 1003.05 1003.34 1003.74 1004.21 1004.76 1005.34 1005.95 1006.56 1007.15 1007.72 1008.26 1008.76
1013.47 1014.14 1014.82 1015.47 1016.05 1016.52 1016.87 1017.08 1017.14 1017.06 1016.84 1016.51 1016.06 1015.52 1014.87 1014.14 1013.32 1012.43 1011.47 1010.47 1009.44 1008.40 1007.39 1006.41 1005.50 1004.68 1003.97 1003.38 1002.93 1002.62 1002.45 1002.43 1002.55 1002.79 1003.15 1003.60 1004.14 1004.74 1005.37 1006.03 1006.68 1007.32 1007.93 1008.50
1014.73 1015.40 1016.03 1016.57 1017.00 1017.30 1017.44 1017.42 1017.25 1016.95 1016.54 1016.03 1015.44 1014.79 1014.09 1013.34 1012.55 1011.72 1010.85 1009.95 1009.04 1008.11 1007.19 1006.29 1005.43 1004.64 1003.93 1003.31 1002.81 1002.44 1002.21 1002.11 1002.15 1002.33 1002.63 1003.05 1003.56 1004.15 1004.80 1005.49 1006.19 1006.88 1007.56 1008.21
1015.90 1016.49 1016.98 1017.34 1017.54 1017.58 1017.44 1017.15 1016.72 1016.18 1015.56 1014.89 1014.19 1013.48 1012.76 1012.05 1011.33 1010.61 1009.88 1009.13 1008.37 1007.59 1006.80 1006.02 1005.26 1004.53 1003.85 1003.25 1002.73 1002.32 1002.03 1001.87 1001.84 1001.95 1002.19 1002.55 1003.02 1003.59 1004.23 1004.93 1005.66 1006.41 1007.15 1007.87
Thickness
5798 5787 5785 5799 5805 5803 5803 5803 5806 5822 5838 5818 5806 5809 5826 5838 5832 5823 5819 5814 5810 5808 5810 5810 5811 5812 5810 5807 5805 5804 5798 5795 5791 5787 5784 5781 5781 5783 5784 5784 5783 5781 5777 5774
5788 5782 5798 5803 5802 5798 5796 5792 5797 5814 5824 5810 5799 5802 5818 5826 5822 5818 5810 5805 5800 5795 5793 5792 5792 5793 5792 5790 5789 5788 5785 5783 5781 5778 5777 5775 5775 5775 5776 5776 5776 5774 5770 5766
5779 5786 5798 5795 5792 5789 5792 5791 5792 5793 5802 5805 5794 5790 5805 5819 5819 5812 5805 5798 5793 5787 5781 5780 5779 5778 5778 5776 5776 5775 5773 5772 5771 5770 5768 5767 5766 5766 5766 5766 5766 5766 5763 5758
5783 5794 5789 5784 5785 5786 5777 5792 5787 5782 5773 5771 5781 5765 5795 5811 5805 5798 5788 5781 5777 5775 5773 5770 5768 5766 5765 5766 5767 5765 5763 5762 5761 5760 5757 5754 5752 5751 5756 5756 5756 5756 5754 5750
5775 5785 5781 5775 5781 5784 5778 5787 5780 5775 5768 5763 5773 5765 5784 5807 5790 5776 5769 5765 5765 5766 5766 5762 5760 5757 5757 5757 5756 5755 5754 5752 5751 5749 5747 5745 5744 5745 5747 5747 5746 5746 5744 5742
5779 5791 5787 5783 5789 5788 5783 5777 5774 5774 5767 5747 5762 5753 5762 5779 5776 5768 5766 5765 5763 5762 5762 5759 5756 5753 5750 5750 5749 5747 5744 5742 5741 5740 5739 5736 5734 5734 5734 5735 5734 5734 5733 5731
5762 5777 5790 5790 5775 5778 5773 5753 5738 5739 5744 5742 5749 5736 5752 5773 5781 5777 5770 5766 5763 5761 5757 5753 5750 5747 5745 5744 5742 5740 5737 5734 5733 5732 5730 5728 5727 5725 5724 5724 5723 5722 5721 5720
5743 5748 5774 5782 5772 5760 5760 5751 5727 5713 5722 5740 5758 5756 5774 5784 5782 5778 5771 5766 5762 5758 5755 5751 5748 5745 5742 5739 5736 5733 5730 5727 5725 5723 5721 5720 5719 5717 5715 5714 5712 5710 5709 5709
5744 5746 5775 5780 5781 5770 5754 5752 5758 5737 5733 5730 5751 5770 5767 5774 5768 5766 5763 5761 5757 5755 5752 5748 5745 5741 5737 5732 5729 5725 5722 5719 5716 5714 5713 5711 5709 5706 5703 5702 5700 5698 5696 5696
5760 5745 5765 5778 5778 5774 5766 5760 5749 5732 5713 5710 5732 5748 5745 5748 5752 5756 5755 5753 5752 5750 5747 5743 5738 5734 5730 5725 5721 5718 5714 5710 5707 5705 5703 5701 5699 5696 5693 5689 5687 5685 5682 5681
5767 5747 5753 5764 5758 5756 5760 5754 5748 5740 5732 5711 5706 5729 5767 5760 5757 5752 5752 5752 5749 5745 5741 5736 5731 5726 5721 5717 5712 5707 5703 5700 5696 5693 5691 5689 5687 5684 5680 5676 5673 5670 5667 5665
5765 5753 5741 5753 5775 5781 5768 5755 5745 5723 5719 5721 5711 5726 5771 5764 5759 5754 5749 5747 5745 5741 5737 5731 5725 5718 5711 5705 5701 5696 5693 5689 5686 5684 5681 5678 5675 5671 5666 5662 5659 5656 5653 5651
5754 5737 5722 5735 5751 5760 5755 5755 5752 5744 5731 5720 5710 5726 5769 5764 5758 5754 5747 5742 5739 5736 5731 5725 5718 5710 5702 5696 5692 5687 5683 5680 5677 5674 5671 5667 5663 5659 5655 5650 5646 5643 5640 5639
5757 5735 5722 5714 5729 5745 5746 5753 5757 5747 5729 5725 5727 5735 5751 5752 5749 5747 5743 5738 5734 5730 5725 5718 5711 5704 5697 5691 5685 5680 5676 5673 5669 5665 5661 5657 5654 5650 5646 5641 5636 5632 5630 5629
5756 5736 5737 5740 5748 5751 5750 5752 5754 5748 5743 5731 5733 5734 5739 5741 5739 5738 5735 5731 5726 5722 5718 5713 5706 5700 5693 5686 5680 5675 5671 5668 5663 5658 5654 5650 5647 5643 5639 5634 5629 5625 5623 5622
5756 5736 5733 5733 5744 5749 5749 5755 5755 5751 5746 5738 5732 5727 5736 5736 5733 5727 5724 5720 5715 5714 5712 5709 5703 5696 5689 5683 5676 5671 5667 5663 5659 5653 5650 5646 5642 5638 5633 5629 5625 5621 5618 5617
5746 5734 5723 5723 5738 5739 5732 5748 5747 5742 5737 5725 5710 5711 5719 5714 5711 5710 5710 5709 5707 5707 5705 5702 5698 5692 5687 5681 5675 5668 5664 5660 5655 5651 5647 5643 5639 5635 5630 5627 5622 5618 5615 5613
5740 5726 5718 5718 5720 5705 5738 5757 5748 5734 5718 5710 5704 5702 5700 5697 5699 5703 5703 5697 5694 5695 5694 5694 5691 5688 5684 5680 5674 5668 5662 5657 5653 5649 5645 5642 5637 5633 5629 5624 5620 5616 5613 5611
5747 5724 5713 5710 5707 5717 5735 5731 5725 5713 5696 5686 5684 5683 5683 5685 5686 5690 5690 5684 5682 5683 5684 5686 5686 5685 5681 5677 5671 5665 5659 5655 5651 5648 5645 5642 5637 5632 5628 5623 5619 5616 5612 5610
5741 5726 5710 5704 5692 5688 5696 5712 5720 5708 5685 5668 5667 5661 5661 5662 5652 5658 5665 5667 5669 5672 5674 5676 5678 5678 5675 5673 5668 5661 5655 5652 5648 5647 5645 5642 5637 5632 5627 5623 5618 5615 5611 5608
5724 5713 5702 5695 5689 5694 5682 5695 5698 5667 5645 5650 5649 5644 5641 5634 5630 5636 5644 5648 5651 5656 5661 5665 5667 5667 5668 5667 5663 5656 5651 5649 5648 5647 5644 5641 5636 5632 5627 5622 5617 5613 5610 5606
5720 5710 5703 5698 5684 5666 5662 5665 5643 5627 5630 5628 5626 5623 5619 5618 5620 5622 5624 5628 5631 5636 5643 5647 5651 5654 5658 5659 5656 5652 5648 5647 5646 5644 5641 5638 5634 5631 5627 5620 5616 5612 5608 5604
5713 5703 5701 5685 5657 5637 5636 5628 5618 5615 5610 5607 5605 5603 5601 5599 5600 5601 5603 5607 5611 5615 5621 5626 5630 5636 5643 5648 5647 5645 5646 5644 5641 5639 5637 5634 5631 5628 5625 5619 5614 5610 5606 5603
5695 5693 5688 5667 5638 5632 5623 5614 5606 5600 5595 5592 5588 5585 5582 5579 5581 5582 5584 5587 5590 5595 5600 5606 5610 5615 5622 5630 5637 5640 5641 5639 5636 5634 5632 5630 5627 5624 5621 5617 5615 5611 5607 5604
5653 5658 5657 5645 5622 5618 5613 5602 5595 5590 5584 5580 5577 5572 5567 5563 5563 5563 5565 5568 5570 5574 5581 5586 5591 5598 5605 5612 5620 5629 5634 5634 5631 5629 5628 5626 5624 5621 5618 5616 5614 5611 5610 5608
5628 5621 5616 5607 5598 5590 5589 5586 5579 5573 5569 5566 5563 5560 5557 5551 5546 5545 5546 5547 5549 5553 5560 5567 5574 5582 5589 5594 5604 5613 5623 5627 5626 5624 5623 5622 5621 5619 5616 5612 5607 5602 5604 5603